Location: Caltech
(34.1382°N, 118.1253°W)
Time: 01:52:07
(UTC-08:00)

Meteor 2-4 Rocket - Visible Passes

Search period start: 09 February 2016 00:00
Search period end: 19 February 2016 00:00
Orbit: 799 x 908 km, 81.2° (Epoch: 07 February)

Date Brightness Start Highest point End Pass type
(mag) Time Alt. Az. Time Alt. Az. Time Alt. Az.
16 Feb 5.7 18:57:14 10° NNE 18:57:25 11° NNE 18:57:25 11° NNE visible
16 Feb 6.1 20:38:47 10° NNW 20:39:33 14° NNW 20:39:33 14° NNW visible
17 Feb 5.5 18:46:26 10° NNE 18:47:24 13° NE 18:47:24 13° NE visible
17 Feb 5.6 20:27:44 10° NNW 20:29:33 21° NNW 20:29:33 21° NNW visible
18 Feb 5.3 18:35:40 10° NE 18:37:34 14° ENE 18:37:34 14° ENE visible
18 Feb 5.0 20:16:43 10° NNW 20:19:44 32° NW 20:19:44 32° NW visible
